Location: Bastelaar
(51.0950°N, 3.8602°E)
Time: 06:40:16
(UTC+00:00)

Helios 1A Rocket - Pass Details

Date: 18 November 2025
Orbit: 439 x 451 km, 98.3° (Epoch: 10 December)

Event Time Altitude Azimuth Distance (km) Brightness Sun altitude
Exits shadow 17:15:14 12° 121° (ESE) 1,436 4.5 -12.8°
Drops below altitude 10° 17:15:50 10° 130° (SE) 1,572 4.8 -12.8°
Sets 17:18:31 0° 155° (SSE) 2,442 6.0 -13.3°
